When you browse on this site, cookies collect data to enhance your experience and personalize the content and advertising you see.
Visit our Privacy Policy to learn more. By continuing to use the site, you agree to this use of cookies and data.
  • In Latvia
  • List of Countries
  • For 7 days
  • Water Temperature
  • Satellite Maps
  • Weather Map
  • Weather Widgets
  • user-avatar
    Login

    Hourly Weather Balozi

    Today, 21 February, Thursday

    Time Temperature Precipitation Wind Pressure Humidity
    00:00 -6°C° 0 mm 8 mps 758 mmHg 63%
    01:00 -6°C° 0 mm 7 mps 759 mmHg 62%
    02:00 -6°C° 0 mm 6 mps 759 mmHg 64%
    03:00 -6°C° 0 mm 6 mps 759 mmHg 65%
    04:00 -6°C° 0 mm 6 mps 760 mmHg 66%
    05:00 -8°C° 0 mm 6 mps 760 mmHg 67%
    06:00 -7°C° 0 mm 5 mps 761 mmHg 67%
    07:00 -7°C° 0 mm 5 mps 761 mmHg 68%
    08:00 -7°C° 0 mm 4 mps 762 mmHg 68%
    09:00 -7°C° 0 mm 4 mps 762 mmHg 64%
    10:00 -5°C° 0 mm 4 mps 763 mmHg 59%
    11:00 -5°C° 0 mm 4 mps 763 mmHg 55%
    12:00 -4°C° 0 mm 4 mps 764 mmHg 52%
    13:00 -4°C° 0 mm 4 mps 764 mmHg 50%
    14:00 -4°C° 0 mm 4 mps 764 mmHg 47%
    15:00 -4°C° 0 mm 3 mps 764 mmHg 49%
    16:00 -5°C° 0 mm 3 mps 765 mmHg 50%
    17:00 -5°C° 0 mm 3 mps 765 mmHg 52%
    18:00 -5°C° 0 mm 3 mps 766 mmHg 54%
    19:00 -6°C° 0 mm 3 mps 766 mmHg 55%
    20:00 -7°C° 0 mm 4 mps 767 mmHg 57%
    21:00 -8°C° 0 mm 4 mps 768 mmHg 58%
    22:00 -8°C° 0 mm 4 mps 768 mmHg 59%
    23:00 -9°C° 0 mm 4 mps 769 mmHg 60%

    Tomorrow, 22 February, Friday

    Time Temperature Precipitation Wind Pressure Humidity
    00:00 -9°C° 0 mm 4 mps 770 mmHg 60%
    01:00 -9°C° 0 mm 4 mps 771 mmHg 61%
    02:00 -9°C° 0 mm 4 mps 771 mmHg 62%
    03:00 -9°C° 0 mm 4 mps 772 mmHg 62%
    04:00 -9°C° 0 mm 4 mps 773 mmHg 62%
    05:00 -9°C° 0 mm 4 mps 773 mmHg 62%
    06:00 -9°C° 0 mm 4 mps 774 mmHg 62%
    07:00 -9°C° 0 mm 4 mps 775 mmHg 62%
    08:00 -9°C° 0 mm 4 mps 775 mmHg 61%
    09:00 -8°C° 0 mm 4 mps 776 mmHg 57%
    10:00 -7°C° 0 mm 4 mps 776 mmHg 52%
    11:00 -5°C° 0 mm 4 mps 777 mmHg 47%
    12:00 -5°C° 0 mm 4 mps 777 mmHg 46%
    13:00 -4°C° 0 mm 4 mps 778 mmHg 45%
    14:00 -4°C° 0 mm 4 mps 778 mmHg 44%
    15:00 -4°C° 0 mm 4 mps 778 mmHg 46%
    16:00 -5°C° 0 mm 4 mps 778 mmHg 49%
    17:00 -5°C° 0 mm 4 mps 778 mmHg 52%
    18:00 -5°C° 0 mm 3 mps 779 mmHg 55%
    19:00 -6°C° 0 mm 3 mps 779 mmHg 59%
    20:00 -6°C° 0 mm 2 mps 780 mmHg 62%
    21:00 -6°C° 0 mm 2 mps 780 mmHg 63%
    22:00 -4°C° 0 mm 1 mps 780 mmHg 64%
    23:00 -4°C° 0 mm 1 mps 780 mmHg 65%

    Day after tomorrow, 23 February, Saturday

    Time Temperature Precipitation Wind Pressure Humidity
    00:00 -4°C° 0 mm 1 mps 780 mmHg 66%
    01:00 -4°C° 0 mm 1 mps 780 mmHg 66%
    02:00 -4°C° 0 mm 1 mps 780 mmHg 66%
    03:00 -7°C° 0 mm 2 mps 780 mmHg 65%
    04:00 -7°C° 0 mm 2 mps 780 mmHg 64%
    05:00 -7°C° 0 mm 2 mps 779 mmHg 62%
    06:00 -7°C° 0 mm 3 mps 779 mmHg 59%
    07:00 -7°C° 0 mm 3 mps 779 mmHg 55%
    08:00 -7°C° 0 mm 3 mps 779 mmHg 51%
    09:00 -7°C° 0 mm 4 mps 778 mmHg 54%
    10:00 -5°C° 0 mm 4 mps 778 mmHg 57%
    11:00 -4°C° 0 mm 4 mps 777 mmHg 60%
    12:00 -4°C° 0 mm 4 mps 777 mmHg 62%
    13:00 -3°C° 0 mm 4 mps 776 mmHg 64%
    14:00 -2°C° 0 mm 4 mps 776 mmHg 67%
    15:00 -2°C° 0 mm 4 mps 776 mmHg 69%
    16:00 -2°C° 0 mm 4 mps 775 mmHg 70%
    17:00 -2°C° 0 mm 4 mps 775 mmHg 72%
    18:00 -2°C° 0 mm 4 mps 774 mmHg 74%
    19:00 -2°C° 0 mm 4 mps 774 mmHg 75%
    20:00 -2°C° 0 mm 4 mps 774 mmHg 77%
    21:00 -1°C° 0 mm 3 mps 773 mmHg 80%
    22:00 -1°C° 0 mm 3 mps 773 mmHg 82%
    23:00 -1°C° 0 mm 3 mps 773 mmHg 85%

    24 February, Sunday

    Time Temperature Precipitation Wind Pressure Humidity
    00:00 -1°C° 0 mm 2 mps 773 mmHg 87%
    01:00 -2°C° 0 mm 2 mps 773 mmHg 90%
    02:00 -2°C° 0 mm 2 mps 773 mmHg 92%
    03:00 -2°C° 0 mm 2 mps 772 mmHg 93%
    04:00 -2°C° 0 mm 2 mps 772 mmHg 94%
    05:00 -2°C° 0 mm 2 mps 772 mmHg 94%
    06:00 -2°C° 0 mm 2 mps 772 mmHg 95%
    07:00 -2°C° 0 mm 2 mps 772 mmHg 95%
    08:00 -2°C° 0 mm 2 mps 772 mmHg 95%
    09:00 +1°C° 0 mm 2 mps 772 mmHg 92%
    10:00 +2°C° 0 mm 2 mps 772 mmHg 88%
    11:00 +3°C° 0 mm 2 mps 772 mmHg 84%
    12:00 +4°C° 0 mm 2 mps 772 mmHg 83%
    13:00 +4°C° 0 mm 2 mps 771 mmHg 81%
    14:00 +5°C° 0 mm 2 mps 771 mmHg 80%
    15:00 +4°C° 0 mm 2 mps 771 mmHg 83%
    16:00 +4°C° 0 mm 2 mps 771 mmHg 87%
    17:00 +3°C° 0 mm 2 mps 770 mmHg 91%
    18:00 +3°C° 0 mm 2 mps 770 mmHg 93%
    19:00 +2°C° 0 mm 3 mps 770 mmHg 94%
    20:00 +2°C° 0 mm 3 mps 770 mmHg 95%
    21:00 +1°C° 0 mm 3 mps 770 mmHg 95%
    22:00 +1°C° 0 mm 3 mps 769 mmHg 95%
    23:00 0°C° 0 mm 3 mps 769 mmHg 95%

    25 February, Monday

    Time Temperature Precipitation Wind Pressure Humidity
    00:00 +1°C° 0 mm 3 mps 769 mmHg 95%
    01:00 +1°C° 0 mm 3 mps 770 mmHg 95%
    02:00 0°C° 0 mm 4 mps 770 mmHg 95%
    03:00 0°C° 0 mm 4 mps 770 mmHg 94%
    04:00 0°C° 0 mm 4 mps 770 mmHg 93%
    05:00 0°C° 0 mm 4 mps 771 mmHg 91%
    06:00 -1°C° 0 mm 4 mps 771 mmHg 91%
    07:00 -1°C° 0 mm 4 mps 771 mmHg 90%
    08:00 0°C° 0 mm 3 mps 771 mmHg 90%
    09:00 0°C° 0 mm 4 mps 771 mmHg 85%
    10:00 +1°C° 0 mm 4 mps 771 mmHg 79%
    11:00 +2°C° 0 mm 5 mps 771 mmHg 74%
    12:00 +3°C° 0 mm 5 mps 771 mmHg 72%
    13:00 +3°C° 0 mm 5 mps 771 mmHg 70%
    14:00 +3°C° 0 mm 5 mps 771 mmHg 69%
    15:00 +3°C° 0 mm 5 mps 770 mmHg 70%
    16:00 +3°C° 0 mm 4 mps 770 mmHg 72%
    17:00 +3°C° 0 mm 4 mps 770 mmHg 74%
    18:00 +2°C° 0 mm 3 mps 769 mmHg 78%
    19:00 +1°C° 0 mm 3 mps 769 mmHg 83%
    20:00 +1°C° 0 mm 2 mps 769 mmHg 88%
    21:00 +1°C° 0 mm 2 mps 768 mmHg 90%
    22:00 +1°C° 0 mm 2 mps 767 mmHg 91%
    23:00 +1°C° 0 mm 2 mps 767 mmHg 93%

    26 February, Tuesday

    Time Temperature Precipitation Wind Pressure Humidity
    00:00 +2°C° 0 mm 1 mps 766 mmHg 94%
    01:00 +2°C° 0 mm 1 mps 766 mmHg 95%
    02:00 +2°C° 0 mm 1 mps 765 mmHg 96%
    03:00 +1°C° 0 mm 2 mps 764 mmHg 96%
    04:00 +1°C° 0 mm 2 mps 764 mmHg 97%
    05:00 +1°C° 0 mm 2 mps 763 mmHg 97%
    06:00 +1°C° 0 mm 2 mps 762 mmHg 97%
    07:00 +1°C° 0 mm 2 mps 762 mmHg 97%
    08:00 0°C° 0 mm 3 mps 761 mmHg 97%
    09:00 0°C° 0 mm 4 mps 761 mmHg 94%
    10:00 0°C° 0 mm 5 mps 760 mmHg 91%
    11:00 +1°C° 0 mm 6 mps 760 mmHg 88%
    12:00 +2°C° 0 mm 7 mps 760 mmHg 81%
    13:00 +2°C° 0 mm 8 mps 759 mmHg 74%
    14:00 +3°C° 0 mm 9 mps 759 mmHg 66%
    15:00 +3°C° 0 mm 9 mps 759 mmHg 67%
    16:00 +2°C° 0 mm 8 mps 759 mmHg 67%
    17:00 +1°C° 0 mm 8 mps 760 mmHg 68%
    18:00 +1°C° 0 mm 8 mps 760 mmHg 69%
    19:00 0°C° 0 mm 8 mps 761 mmHg 71%
    20:00 0°C° 0 mm 8 mps 762 mmHg 72%
    21:00 0°C° 0 mm 7 mps 763 mmHg 75%
    22:00 +1°C° 0 mm 6 mps 763 mmHg 77%
    23:00 0°C° 0 mm 5 mps 764 mmHg 79%
    Show more